Red Bluff, CA

9:18 PM PST on December 09, 2019 (GMT -0800)
Red Bluff Municipal

Weather History for KRBL - October, 2019

Change the Weather History Date:

Thursday, October 24, 2019

  Actual Average Record
Temperature  
Mean Temperature 76 °F -  
Max Temperature 87 °F 75 °F 95 °F (2017)
Min Temperature 63 °F 48 °F 36 °F (1935)
Cooling Degree Days 10    
Growing Degree Days 26 (Base 50)    
Moisture  
Dew Point 21 °F    
Average Humidity 13    
Maximum Humidity 22    
Minimum Humidity 4    
Precipitation  
Precipitation 0.00 in - - ()
Sea Level Pressure  
Sea Level Pressure 30.11 in    
Wind  
Wind Speed 12 mph (NNW)    
Max Wind Speed 16 mph    
Max Gust Speed 24 mph    
Visibility 10 miles    
Events Rain    
Averages and records for this station are not official NWS values.
T = Trace of Precipitation, MM = Missing Value Source: NWS Daily Summary

Daily Weather History Graph

Daily Weather History Graph

Search for Another Location

Airport or City:

Astronomy

Oct. 24, 2019 Rise Set
Actual Time 7:29 AM PDT 6:16 PM PDT
Civil Twilight 7:01 AM PDT 6:44 PM PDT
Nautical Twilight 6:29 AM PDT 7:15 PM PDT
Astronomical Twilight 5:58 AM PDT 7:47 PM PDT
Moon 3:05 AM PDT (10/24) 4:47 PM PDT (10/24)
Length of Visible Light 11h 42m
Length of Day
10h 47m
Waning Crescent, 16% of the Moon is Illuminated
Oct 24
Waning Crescent
Oct 27
New
Nov 4
First Quarter
Nov 12
Full
Nov 19
Last Quarter

Hourly Weather History & Observations

Time (PDT) Temp. Dew Point Humidity Pressure Visibility Wind Dir Wind Speed Gust Speed Precip Events Conditions
12:54 AM 71.1 °F 21.0 °F 15% 30.11 in 10.0 mi NNW 13.8 mph - 0.00 in Rain Light Rain
1:54 AM 71.1 °F 19.9 °F 14% 30.11 in 10.0 mi NNW 12.7 mph - 0.00 in Rain Light Rain
2:54 AM 69.1 °F 19.9 °F 15% 30.12 in 10.0 mi NNW 11.5 mph - 0.00 in Rain Light Rain
3:54 AM 68.0 °F 19.0 °F 15% 30.12 in 10.0 mi NW 11.5 mph - 0.00 in Rain Light Rain
4:54 AM 66.9 °F 19.0 °F 16% 30.12 in 10.0 mi NNW 10.4 mph - 0.00 in Rain Light Rain
5:54 AM 66.9 °F 19.0 °F 16% 30.12 in 10.0 mi NNW 9.2 mph - 0.00 in Rain Light Rain
6:54 AM 64.9 °F 19.0 °F 17% 30.13 in 10.0 mi NNW 8.1 mph - 0.00 in Rain Light Rain
7:54 AM 66.9 °F 19.0 °F 16% 30.14 in 10.0 mi North 13.8 mph - 0.00 in   Clear
8:54 AM 71.1 °F 19.9 °F 14% 30.17 in 10.0 mi North 15.0 mph - N/A   Clear
9:54 AM 75.0 °F 21.0 °F 13% 30.17 in 10.0 mi NNW 12.7 mph - N/A   Clear
10:54 AM 78.1 °F 19.9 °F 11% 30.16 in 10.0 mi North 15.0 mph - N/A   Clear
11:54 AM 80.1 °F 19.9 °F 11% 30.14 in 10.0 mi NNW 16.1 mph 24.2 mph N/A   Clear
12:54 PM 82.9 °F 19.9 °F 10% 30.13 in 10.0 mi NNW 12.7 mph - N/A   Clear
1:54 PM 84.0 °F 19.9 °F 9% 30.11 in 10.0 mi North 15.0 mph - 0.00 in Rain Light Rain
2:54 PM 87.1 °F 21.0 °F 9% 30.09 in 10.0 mi North 15.0 mph - 0.00 in Rain Light Rain
3:54 PM 86.0 °F 21.9 °F 10% 30.08 in 10.0 mi NNW 12.7 mph - 0.00 in   Clear
4:54 PM 86.0 °F 23.0 °F 10% 30.06 in 10.0 mi NNW 11.5 mph - N/A   Clear
5:54 PM 82.0 °F 24.1 °F 12% 30.06 in 10.0 mi WNW 5.8 mph - N/A   Clear
6:54 PM 75.0 °F 25.0 °F 16% 30.06 in 10.0 mi WNW 6.9 mph - N/A   Clear
7:54 PM 71.1 °F 24.1 °F 17% 30.07 in 10.0 mi NW 5.8 mph - N/A   Clear
8:54 PM 66.9 °F 25.0 °F 21% 30.08 in 10.0 mi North 3.5 mph - N/A   Clear
9:54 PM 68.0 °F 23.0 °F 18% 30.09 in 10.0 mi North 4.6 mph - N/A   Clear
10:54 PM 64.0 °F 23.0 °F 21% 30.10 in 10.0 mi NW 5.8 mph - N/A   Clear
11:54 PM 63.0 °F 23.0 °F 22% 30.10 in 10.0 mi NNW 9.2 mph - N/A   Clear